Overview Statistics Trail Chart Weather Telemetry Raw packets
 

This is the latest recevied weather packets stored in our database for station/object KL7AF. If no packets are shown the sender has not sent any weather packets the latest 10 day(s).

<< 7 8 9 10 11 12 13 >>
Time Temp. Humidity Pressure Rain* Wind** Luminosity Snow
1788561136 32.78° C 65% 1075.6 hPa 0 mm - 46 W/m² -
1788560835 33.89° C 63% 1075.3 hPa 0 mm - 50 W/m² -
1788560535 34.44° C 62% 1075.2 hPa 0 mm - 62 W/m² -
1788560262 34.44° C 62% 1075.1 hPa 0 mm - 74 W/m² -
1788559934 35° C 60% 1074.9 hPa 0 mm - 81 W/m² -
1788559633 35.56° C 58% 1074.8 hPa 0 mm - 103 W/m² -
1788559333 35.56° C 58% 1074.7 hPa 0 mm - 96 W/m² -
1788559032 35.56° C 59% 1074.6 hPa 0 mm - 109 W/m² -
1788558731 35° C 60% 1074.7 hPa 0 mm - 91 W/m² -
1788558442 35.56° C 58% 1074.6 hPa 0 mm - 96 W/m² -
1788558130 35.56° C 59% 1074.6 hPa 0 mm - 102 W/m² -
1788557830 35.56° C 59% 1074.6 hPa 0 mm - 131 W/m² -
1788557529 35.56° C 58% 1074.6 hPa 0 mm - 130 W/m² -
1788557229 35.56° C 58% 1074.6 hPa 0 mm - 118 W/m² -
1788556928 35.56° C 57% 1074.6 hPa 0 mm - 98 W/m² -
1788556628 35.56° C 59% 1074.6 hPa 0 mm - 90 W/m² -
1788556327 35.56° C 58% 1074.5 hPa 0 mm - 101 W/m² -
1788556026 35.56° C 57% 1074.4 hPa 0 mm - 72 W/m² -
1788555726 35.56° C 59% 1074.5 hPa 0 mm - 56 W/m² -
1788555426 36.11° C 57% 1074.3 hPa 0 mm - 57 W/m² -
1788555125 36.11° C 57% 1074 hPa 0 mm - 68 W/m² -
1788554843 36.11° C 58% 1074.1 hPa 0 mm - 80 W/m² -
1788554524 36.11° C 56% 1074.3 hPa 0 mm - 81 W/m² -
1788554223 36.11° C 55% 1074.3 hPa 0 mm - 109 W/m² -
1788553923 36.11° C 57% 1074.4 hPa 0 mm - 232 W/m² -

* Rain latest hour (hover to see other rain measurements)
** Current wind speed in m/s (hover to see current wind gust speed)